Regional Weather Roundup
Issued by NWS

Home | Current Version | Previous Version | Graphics & Text | Print | Product List | Glossary On
Versions: 1 2 3 4 5 6 7 8 9 10 11 12 13 14 15 16 17 18 19 20 21 22 23 24 25 26 27 28 29 30 31 32 33 34 35 36 37 38 39 40 41 42 43 44 45 46 47 48 49 50
000
ASUS45 KTFX 040710
RWRMT
MONTANA REGIONAL WEATHER ROUNDUP
NATIONAL WEATHER SERVICE GREAT FALLS MT
1200 AM MST SUN DEC 04 2016

NOTE: "FAIR" INDICATES FEW OR NO CLOUDS BELOW 12000 FEET WITH NO
SIGNIFICANT WEATHER AND/OR OBSTRUCTIONS TO VISIBILITY.

MTZ001>007-043-040800-
WEST OF THE DIVIDE

CITY           SKY/WX    TMP DP  RH WIND       PRES   REMARKS
KALISPELL      CLOUDY    35  29  78 S7        29.93F WCI  29
MISSOULA       FLURRIES  33  32  96 CALM      30.02F
BUTTE          CLOUDY    29  14  53 SW12      29.97S WCI  19
MULLAN PASS    LGT SNOW  24  22  91 SW9G22    29.90F FOG     WCI  14
ANACONDA         N/A     30  18  59 S8        29.98S WCI  23
DEER LODGE       N/A     28  18  64 N5        29.99S
EUREKA           N/A     36  27  69 SE14      29.89F WCI  27
HAMILTON         N/A     37  21  52 SE14      30.01F WCI  29
LIBBY            N/A     36  30  80 CALM      29.92F
PLAINS           N/A     35  28  76 CALM      29.99F
RONAN            N/A     36  28  73 CALM      30.01F
$$

MTZ008-052>055-040800-
SOUTHWEST MONTANA

CITY           SKY/WX    TMP DP  RH WIND       PRES   REMARKS
BOZEMAN        CLOUDY    34  16  47 SW12      29.98F WCI  25
DILLON         CLOUDY    24  13  62 S10       30.01F WCI  14
W YELLOWSTONE  CLOUDY    19  19 100 SW12      30.04F WCI   7
ENNIS          PTCLDY    25  16  68 S14       30.05F WCI  13
THREE FORKS      N/A     33  33 100 SW18      29.97F WCI  22
TWIN BRIDGES     N/A     27  13  55 SE5       29.99F
$$

MTZ009-010-012-014-046-048-049-054-040800-
EAST SLOPES AND CENTRAL MONTANA

CITY           SKY/WX    TMP DP  RH WIND       PRES   REMARKS
CUT BANK       CLOUDY    32  21  64 W22       29.80S WCI  19
GREAT FALLS    CLOUDY    34  21  59 SW23      29.87F WCI  22
MALMSTROM AFB  CLOUDY    35  22  59 SW21G26   29.88F WCI  24
HELENA         CLOUDY    35  20  54 CALM      29.96S
AUGUSTA        MOCLDY    27  18  67 SW5       29.86F
BOWMANS CRNR     N/A     28  21  74 S15       29.86F WCI  17
CHOTEAU          N/A     32  19  59 S6        29.88F WCI  26
CONRAD           N/A     35  24  64 SW17      29.85S WCI  25
FAIRFIELD      MOCLDY    31  18  57 S9        29.86F WCI  23
POWER          MOCLDY    33  18  54 SW15      29.84F WCI  22
RAYNESFORD     MOCLDY    35  19  52 SW21G30   29.87F WCI  24
ULM            MOCLDY    35  22  58 W17G32    29.90S WCI  25
$$

MTZ011-013-016-021-045-047-050-051-040800-
NORTH CENTRAL MONTANA

CITY           SKY/WX    TMP DP  RH WIND       PRES   REMARKS
HAVRE          PTCLDY    30  22  72 SW8       29.84F WCI  22
LEWISTOWN      CLOUDY    28  17  63 SW7       29.87F WCI  21
N BAR RANCH      N/A     30  14  51 W9        29.88F WCI  22
CHINOOK          N/A     30  21  69 W3        29.84F
DENTON         MOCLDY    34  19  55 W20G39    29.83F WCI  22
GEYSER         MOCLDY    33  19  56 W15G25    29.86S WCI  22
GRASS RANGE    MOCLDY    32  18  57 SW13      29.85F WCI  22
JUDITH GAP     MOCLDY    31  15  53 SW5       29.88F
ROY            MOCLDY    30  18  60 MISG      29.85F
STANFORD       MOCLDY    33  17  51 W23G30    29.86S WCI  21
WINIFRED         N/A     29  19  66 MISG      29.85F
$$

MTZ017>020-022>027-061-062-040800-
NORTHEAST MONTANA

CITY           SKY/WX    TMP DP  RH WIND       PRES   REMARKS
GLASGOW        CLEAR     26  23  88 W9        29.83S WCI  17
JORDAN           N/A     20  15  81 NW6       29.86R WCI  12
SIDNEY         CLEAR     32  27  81 W16       29.80F WCI  21
WOLF POINT     PTCLDY    28  24  85 CALM      29.83R
PLENTYWOOD       N/A     30  30 100 W10       29.76S WCI  21
POPLAR           N/A     27  25  93 CALM      29.82S
SCOBEY           N/A     29  22  75 W9        29.77R WCI  21
$$

MTZ028>42-056>058-040800-
SOUTHCENTRAL AND SOUTHEAST MONTANA

CITY           SKY/WX    TMP DP  RH WIND       PRES   REMARKS
BAKER          PTCLDY    26  19  74 SW12      29.85F WCI  16
BILLINGS       CLOUDY    33  19  56 SW12      29.92F WCI  24
LIVINGSTON     CLOUDY    34  13  41 SW20G28   29.94F WCI  23
MILES CITY     PTCLDY    29  19  66 NW5       29.88R
BIG TIMBER     CLOUDY    32  16  51 SW13      29.96F WCI  22
EKALAKA          N/A     31  20  63 SW9       29.84F WCI  23
FORSYTH          N/A     36  19  51 W8        29.91R WCI  29
HARLOWTON      MOCLDY    30  18  59 NW5       29.89F
LAUREL           N/A     25   9  50 SW5       29.91F
ROUNDUP          N/A     33  13  44 SW9       29.82F WCI  25
$$

REGIONAL REPORTS...DAKOTAS

CITY           SKY/WX    TMP DP  RH WIND       PRES   REMARKS
WILLISTON      CLOUDY    34  29  82 W12       29.77S WCI  25
MINOT          CLOUDY    33  31  92 SW8       29.71R WCI  26
DICKINSON      CLOUDY    30  26  85 W18       29.77S WCI  18
BEACH            N/A     25  23  93 W15       29.85F WCI  12
CROSBY         CLOUDY    25  25 100 NW12      29.77S WCI  14
TIOGA          CLOUDY    30  30 100 NW12      29.75S WCI  21
WATFORD CITY   CLOUDY    34  30  86 W14       29.77S WCI  24
BISMARCK       CLOUDY    30  27  88 W3        29.78F
GRAND FORKS    LGT RAIN  34  31  88 S14       29.85F FOG     WCI  25
FARGO          CLOUDY    35  32  88 S17G25    29.88F WCI  25
BUFFALO SD       N/A     28  23  81 W13       29.79S WCI  17
RAPID CITY     CLEAR     31  22  69 W10       29.92S WCI  22
$$

REGIONAL REPORTS...WYOMING/IDAHO/WASHINGTON

CITY           SKY/WX    TMP DP  RH WIND       PRES   REMARKS
GILLETTE       MOCLDY    31  18  58 W10       29.93S WCI  22
SHERIDAN       CLOUDY    35  14  42 W6        29.93S WCI  30
BUFFALO WY     CLOUDY    35   7  31 W7        29.93S WCI  29
CODY           CLOUDY    34  14  43 W12G22    29.96F WCI  25
YELLOWSTONE LA   N/A     19  18  95 VRB7      30.02F WCI  10
IDAHO FALLS    CLOUDY    29  24  82 SW12      30.13F WCI  19
SALMON         PTCLDY    23  18  80 CALM      30.06F
BOISE          PTCLDY    35  28  75 SE10      30.15F WCI  27
SPOKANE        CLOUDY    36  31  82 S16       29.97F WCI  26
$$

REGIONAL REPORTS...ALBERTA

CITY           SKY/WX    TMP DP  RH WIND       PRES   REMARKS
EDMONTON       CLEAR     23  12  63 W8        29.67F WCI  14
CALGARY        MOCLDY    25  16  68 N7        29.69F WCI  17
LETHBRIDGE     CLOUDY    34  19  55 SW17G26   29.75S WCI  23
MEDICINE HAT   CLEAR     25  19  80 S6        29.75F WCI  18
WATERTON GATE    N/A     30  23  74 SW13        N/A  WCI  20
CARDSTON         N/A     28  19  69 SW3         N/A
MILK RIVER       N/A     34  21  60 W18G25      N/A  WCI  23
ONEFOUR          N/A     28  18  64 SE3         N/A
$$

REGIONAL REPORTS...SASKATCHEWAN

CITY           SKY/WX    TMP DP  RH WIND       PRES   REMARKS
SWIFT CURRENT  CLEAR     19  19 100 SW10      29.73F WCI   8
REGINA         CLOUDY    25  23  93 NW8       29.74S WCI  16
SASKATOON      LGT SNOW  23  21  93 W6        29.73F FOG     WCI  16
CYPRESS HILLS    N/A     27  18  69 W9          N/A  WCI  17
VAL MARIE        N/A     23  21  93 SW6         N/A  WCI  16
ROCKGLEN         N/A     25  23  93 W10         N/A  WCI  15
$$



USA.gov is the U.S. government's official web portal to all federal, state and local government web resources and services.